This demonstration page uses our WeatherBlox Daily Observations layout. Learn more.

Left ArrowRight Arrow

Hourly Observations for April 13, 2017

Temp ( °F °C ) Dew Point ( °F °C ) Humidity (%) Winds ( mph kmh ) Pressure ( in mb ) Visibility ( mi km ) Precip ( " mm )
12:53 am 00:53 Cloudy 48 8.9 47 8.3 96 96 NW 3 6 29.81 1010 10 16 0.00 0.00
1:53 am 01:53 Cloudy 48 8.9 46 7.8 93 93 NNW 5 7 29.80 1009 10 16 0.00 0.00
2:53 am 02:53 Cloudy 48 8.9 45 7.2 89 89 NW 5 7 29.81 1010 10 16 0.00 0.00
3:44 am 03:44 Cloudy 48 9 46 8 94 94 Calm 29.85 1011 10 16 0.00 0.00
3:53 am 03:53 Cloudy 47 8.3 45 7.2 93 93 Calm 29.83 1010 10 16 0.00 0.00
4:53 am 04:53 Mostly Clear 44 6.7 44 6.7 100 100 SE 3 6 29.83 1010 10 16 0.00 0.00
5:51 am 05:51 Mostly Cloudy 46 8 45 7 93 93 Calm 29.88 1012 10 16 0.00 0.00
5:53 am 05:53 Cloudy 46 7.8 45 7.2 96 96 Calm 29.85 1011 10 16 0.00 0.00
6:53 am 06:53 Cloudy 47 8.3 45 7.2 93 93 Calm 29.85 1011 10 16 0.00 0.00
7:29 am 07:29 Cloudy 47 8.3 45 7.2 93 93 WNW 3 6 29.91 1013 10 16 0.00 0.00
7:53 am 07:53 Cloudy 47 8.3 46 7.8 97 97 Calm 29.88 1012 10 16 0.00 0.00
8:53 am 08:53 Mostly Cloudy 49 9.4 47 8.3 93 93 WNW 3 6 29.90 1012 10 16 0.00 0.03
9:53 am 09:53 Cloudy 51 10.6 48 8.9 89 89 SW 7 11 29.91 1013 10 16 0.00 0.00
10:17 am 10:17 Cloudy 52 11.1 48 8.9 86 86 SW 7 11 29.94 1014 10 16 0.00 0.00
10:53 am 10:53 Cloudy 53 11.7 47 8.3 80 80 SW 6 9 29.91 1013 10 16 0.00 0.00
11:00 am 11:00 Cloudy 52 11 46 8 82 82 SSW 9 15 29.94 1014 10 16 0.00 0.00
11:53 am 11:53 Partly Cloudy 56 13.3 46 7.8 70 70 SSE 6 9 29.91 1013 10 16 0.00 0.00
12:53 pm 12:53 Cloudy 53 11.7 43 6.1 69 69 N 6 9 29.90 1013 10 16 0.00 0.00
1:01 pm 13:01 Cloudy with Rain 51 10.6 44 6.7 77 77 N 8 13 29.94 1014 4 6 0.02 0.51
1:11 pm 13:11 Mostly Cloudy 52 11.1 45 7.2 77 77 N 5 7 29.94 1014 10 16 0.05 1.27
1:53 pm 13:53 Cloudy 53 11.7 46 7.8 77 77 N 3 6 29.90 1013 10 16 0.05 1.27
2:08 pm 14:08 Cloudy with Nearby Thunderstorms 52 11 48 9 88 88 WSW 6 9 29.94 1014 9 14 0.00 0.00
2:19 pm 14:19 Cloudy with Thunderstorms 53 11.7 44 6.7 72 72 SW 6 9 29.94 1014 10 16 0.00 0.03
2:35 pm 14:35 Cloudy with Nearby Thunderstorms 53 11.7 46 7.8 77 77 SE 6 9 29.94 1014 10 16 0.00 0.03
2:53 pm 14:53 Mostly Cloudy 49 9.4 44 6.7 83 83 SSE 10 17 29.91 1013 10 16 0.00 0.03
3:53 pm 15:53 Cloudy with Light Rain 48 8.9 45 7.2 89 89 ESE 7 11 29.95 1014 5 8 0.06 1.52
4:53 pm 16:53 Partly Cloudy 51 10.6 45 7.2 80 80 ESE 12 19 29.97 1015 10 16 0.00 0.03
5:53 pm 17:53 Cloudy 51 10.6 45 7.2 80 80 ESE 3 6 29.99 1016 10 16 0.00 0.00
6:53 pm 18:53 Cloudy with Light Rain 52 11.1 45 7.2 77 77 S 6 9 30.01 1016 10 16 0.00 0.03
7:53 pm 19:53 Clear 49 9.4 43 6.1 80 80 SSW 7 11 30.02 1017 10 16 0.00 0.03
8:53 pm 20:53 Clear 47 8.3 43 6.1 86 86 SSW 3 6 30.06 1018 10 16 0.00 0.00
9:53 pm 21:53 Clear 44 6.7 42 5.6 93 93 Calm 30.10 1019 10 16 0.00 0.00
10:53 pm 22:53 Mostly Clear 42 5.6 40 4.4 92 92 Calm 30.11 1020 10 16 0.00 0.00
11:53 pm 23:53 Clear 41 5 40 4.4 96 96 Calm 30.13 1020 10 16 0.00 0.00

Powered by AerisWeather